Hourly Data Report for June 11, 2021

WESTERN HEAD
NOVA SCOTIA
Current Station Operator: ECCC - MSC

43°59'24.070" N
64°39'51.008" W
10.10 m
8206240
71411
WWE

Download Data

Hourly Data (June 2021)
Hourly Data Report for June 11, 2021
TIME
LST
Temp Definition
°C
Dew Point Definition
°C
Rel Hum Definition
%
Precip. Amount Definition
mm

Wind Dir Definition
10's deg

Wind Spd Definition
km/h
Visibility Definition
km
Stn Press Definition
kPa
Hmdx Definition


Wind Chill Definition


Weather Definition


00:00 6.0 5.3 96 0.0 4 7   101.93     LegendNANA
01:00 5.7 5.2 96 0.0 36 4   101.94     LegendNANA
02:00 1.8 1.3 97 0.0 36 3   101.97     LegendNANA
03:00 2.8 2.8 100 0.0 36 5   101.93     LegendNANA
04:00 2.6 2.6 100 0.0 36 2   101.96     LegendNANA
05:00 1.6 1.6 100 0.0 35 3   101.97     LegendNANA
06:00 5.6 5.6 100 0.0 22 1   101.98     LegendNANA
07:00 8.8 6.3 84 0.0 17 3   101.98     LegendNANA
08:00 9.8 5.7 76 0.0 17 5   101.98     LegendNANA
09:00 10.7 7.8 82 0.0 17 7   101.96     LegendNANA
10:00 11.8 8.5 80 0.0 17 13   101.91     LegendNANA
11:00 13.0 8.4 74 0.0 18 20   101.89     LegendNANA
12:00 12.9 8.7 76 0.0 18 24   101.83     LegendNANA
13:00 12.7 8.8 77 0.0 18 26   101.79     LegendNANA
14:00 12.5 9.5 82 0.0 18 23   101.74     LegendNANA
15:00 12.5 9.3 81 0.0 18 27   101.68     LegendNANA
16:00 10.7 8.6 87 0.0 20 20   101.64     LegendNANA
17:00 10.4 8.6 89 0.0 19 24   101.58     LegendNANA
18:00 9.8 8.6 92 0.0 20 25   101.55     LegendNANA
19:00 9.5 8.5 94 0.0 20 23   101.56     LegendNANA
20:00 8.9 8.3 96 0.0 21 16   101.57     LegendNANA
21:00 8.7 8.3 98 0.0 21 15   101.58     LegendNANA
22:00 8.5 8.5 100 0.0 22 12   101.58     LegendNANA
23:00 8.3 8.3 100 0.0 22 13   101.53     LegendNANA

Notes on Data Quality.

Legend

  • E = Estimated
  • M = Missing
  • NA = Not Available*
  • [empty] = Indicates an unobserved value
Date modified: